#timestamp,LO_Frequency,Hit,StdDev 
1599231615.5,286047001.2,N
1599231635.3,286046998.8,N
1599231655.2,286046998.6,N
1599231675.9,286046998.5,N
1599231695.7,286046999.6,N
1599231715.6,286046996.5,N
1599231735.4,286046998.9,N
1599231755.2,286046999.3,N
1599231775.1,286046998.3,N
1599231776.0,286046998.3,N
1599231795.8,286046998.2,N
1599231815.7,286046999.3,N
1599231835.5,286046999.0,N
1599231855.3,286046999.2,N
1599231875.2,286046998.7,N
1599231895.0,286046998.2,N
1599231895.9,286046998.2,N
1599231915.8,286047000.6,N
1599231935.6,286047000.7,N
1599231955.4,286046999.9,N
1599231975.3,286047000.9,N
1599231995.1,286047000.4,N
1599232015.8,286047002.2,N
1599232035.7,286047004.3,N
1599232055.5,286047001.9,N
1599232075.3,286047002.0,N
1599232095.2,286047002.8,N
1599232115.0,286046999.8,N
1599232115.9,286046999.8,N
1599232135.8,286046998.3,N
1599232155.6,286046998.3,N
1599232175.4,286046998.3,N
1599232195.3,286046998.3,N
1599232215.1,286047000.7,N
1599232235.8,286047000.5,N
1599232255.7,286047000.4,N
1599232275.5,286047000.6,N
1599232295.4,286046999.9,N
1599232315.2,286047001.0,N
1599232335.0,286046999.0,N
1599232335.9,286046999.0,N
1599232355.8,286046998.2,N
1599232375.6,286047001.1,N
1599232395.5,286047000.0,N
1599232415.3,286047000.3,N
1599232435.1,286047000.8,N
1599232455.9,286046998.5,N
1599232475.7,286046998.6,N
1599232495.5,286046999.3,N
1599232515.4,286047001.1,N
1599232535.2,286047001.1,N
1599232555.0,286046998.9,N
1599232556.0,286046998.9,N
1599232575.8,286046997.0,N
1599232595.6,286046999.4,N
1599232615.5,286046998.9,N
1599232635.3,286046999.5,N
1599232655.1,286046999.0,N
1599232675.9,286046999.4,N
1599232695.7,286046998.9,N
1599232715.6,286046998.9,N
1599232735.4,286046997.2,N
1599232755.2,286046998.8,N
1599232775.1,286046998.5,N
1599232776.0,286046998.5,N
1599232795.8,286046999.3,N
1599232815.6,286046999.6,N
1599232835.5,286046996.5,Y
1599232855.3,286046996.5,P
1599232875.2,286046999.5,N
1599232895.9,286046999.6,N
1599232915.7,286046999.4,N
1599232935.6,286046998.5,N
1599232955.4,286046998.6,N
1599232975.2,286046999.0,N
1599232995.1,286046996.6,Y
1599232996.0,286046996.6,P
1599233015.8,286046998.1,N
1599233035.7,286046998.6,N
1599233055.5,286046998.9,N
1599233075.3,286046998.5,N
1599233095.2,286046998.5,N
1599233115.0,286047000.8,N
1599233115.9,286047000.8,N
1599233135.8,286046999.2,N
1599233155.6,286046999.3,N
1599233175.4,286046998.7,N
1599233195.3,286046998.6,N
1599233215.1,286046998.6,N
1599233235.8,286046998.3,N
1599233255.7,286046998.6,N
1599233275.5,286046998.7,N
1599233295.4,286046998.4,N
1599233315.2,286046998.8,N
1599233335.0,286046998.6,N
1599233335.9,286046998.6,N
1599233355.8,286047001.2,N
1599233375.6,286046998.2,N
1599233395.4,286047000.5,N
1599233415.3,286047000.8,N
1599233435.1,286047001.2,N
1599233455.9,286046998.8,N
1599233475.7,286046998.7,N
1599233495.5,286046998.2,N
1599233515.4,286047001.2,N
1599233535.2,286047001.0,N
1599233555.1,286047001.2,N
1599233556.0,286047001.2,N
1599233575.8,286047001.0,N
1599233595.6,286046999.7,N
1599233615.5,286047002.6,N
1599233665.3,286047002.7,E
1599233675.3,286047001.2,N
1599233695.1,286046999.4,P
1599233715.8,286046997.8,N
1599233735.7,286046997.0,N
1599233755.5,286046997.5,N
1599233775.4,286046997.9,N
1599233795.2,286046998.0,N
1599233815.1,286046997.5,N
1599233816.0,286046997.5,N
1599233835.8,286046996.5,N
1599233855.6,286046996.6,N
1599233875.5,286046997.5,N
1599233895.3,286046997.4,N
1599233915.2,286046996.7,N
1599233935.9,286046997.0,N
1599233955.7,286046997.6,N
1599233975.6,286046997.4,N
1599233995.4,286046997.4,N
1599234015.3,286046997.7,N
1599234035.1,286046997.7,N
1599234055.9,286046995.0,Y
1599234075.7,286046998.6,P
1599234095.5,286046998.8,N
1599234115.4,286046998.6,N
1599234135.2,286046998.5,Y
1599234155.0,286047001.0,P
1599234155.9,286047001.0,N
1599234175.8,286047000.0,N
1599234195.6,286047002.5,N
1599234215.5,286047002.2,N
1599234235.3,286047002.6,N
1599234255.1,286047000.3,N
1599234275.9,286047000.8,N
1599234295.7,286047001.0,N
1599234315.6,286047000.9,N
1599234335.4,286047000.6,N
1599234355.2,286046999.9,N
1599234375.1,286047002.6,N
1599234376.0,286047002.6,N
1599234395.8,286046999.8,N
1599234415.7,286047002.6,N
1599234435.5,286047003.1,N
1599234455.3,286047003.2,N
1599234475.2,286047001.4,N
1599234495.0,286047003.9,Y
1599234495.9,286047003.9,P
1599234515.7,286047002.6,N
1599234535.6,286047002.8,N
1599234555.4,286047000.3,N
1599234575.3,286046999.8,N
1599234595.1,286047000.4,N
1599234596.0,286047000.4,N
1599234615.8,286047002.2,N
1599234635.7,286047002.5,N
1599234655.5,286047000.1,N
1599234675.3,286047000.3,N
1599234695.2,286047000.8,N
1599234715.0,286047000.8,N
1599234715.9,286047000.8,N
1599234735.8,286047000.2,N
1599234755.6,286047000.3,N
1599234775.4,286047000.2,N
1599234795.3,286047001.3,N
1599234815.1,286047001.4,N
1599234835.8,286047001.6,N
1599234855.7,286047001.6,N
1599234875.5,286047002.3,N
1599234895.4,286046999.9,N
1599234915.2,286047002.1,N
1599234935.0,286047002.1,N
1599234935.9,286047002.1,N
1599234955.8,286047000.1,N
1599234975.6,286047002.4,N
1599234995.4,286047001.4,N
1599235015.3,286047003.9,Y
1599235035.1,286047002.3,P
1599235055.9,286047002.7,P
1599235075.7,286046999.7,N
1599235095.5,286047002.5,N
1599235115.4,286046999.7,N
1599235135.2,286047002.7,N
1599235155.0,286047002.3,N
1599235155.9,286047002.3,N
1599235175.8,286046999.9,N
1599235195.6,286047002.8,N
